Weather History for VTSP - June, 2013

Change the Weather History Date:

Friday, June 28, 2013

  Actual Average Record
Temperature  
Mean Temperature 84 °F -  
Max Temperature 88 °F 88 °F 93 °F (2001)
Min Temperature 80 °F 78 °F 74 °F (2015)
Cooling Degree Days 20    
Growing Degree Days 34 (Base 50)    
Moisture  
Dew Point 75 °F    
Average Humidity 74    
Maximum Humidity 84    
Minimum Humidity 64    
Precipitation  
Precipitation 0.00 in 0.37 in - ()
Sea Level Pressure  
Sea Level Pressure 29.84 in    
Wind  
Wind Speed 7 mph ()    
Max Wind Speed 15 mph    
Max Gust Speed -    
Visibility 5.4 miles    
Events      
Averages and records for this station are not official NWS values.
T = Trace of Precipitation, MM = Missing Value Source: Averaged Metar Reports

Daily Weather History Graph

Daily Weather History Graph

Search for Another Location

Airport or City:

Trip Planner

Search our weather history database for the weather conditions in past years. The results will help you decide how hot, cold, wet, or windy it might be!

Date:

Astronomy

Jun. 28, 2013 Rise Set
Actual Time 6:12 AM ICT 6:47 PM ICT
Civil Twilight 5:49 AM ICT 7:10 PM ICT
Nautical Twilight 5:22 AM ICT 7:37 PM ICT
Astronomical Twilight 4:55 AM ICT 8:04 PM ICT
Moon 11:10 PM ICT (6/28) 10:42 AM ICT (6/28)
Length of Visible Light 13h 21m
Length of Day
12h 35m
Waning Gibbous, 71% of the Moon is Illuminated
Jun 28
Waning Gibbous
Jun 30
Last Quarter
Jul 8
New
Jul 16
First Quarter
Jul 23
Full

Hourly Weather History & Observations

Time (ICT) Temp. Heat Index Dew Point Humidity Pressure Visibility Wind Dir Wind Speed Gust Speed Precip Events Conditions
12:00 AM 82.4 °F 89.5 °F 75.2 °F 79% 29.86 in 5.0 mi WSW 5.8 mph - N/A   Mostly Cloudy
12:30 AM 82.4 °F 89.5 °F 75.2 °F 79% 29.86 in 5.0 mi Variable 5.8 mph - N/A   Mostly Cloudy
1:00 AM 83 °F - 78 °F 81% 29.82 in 6 mi Calm Calm - -   Scattered Clouds
1:00 AM 82.4 °F 89.5 °F 75.2 °F 79% 29.86 in 5.0 mi Variable 2.3 mph - N/A   Mostly Cloudy
1:30 AM 82.4 °F 89.5 °F 75.2 °F 79% 29.86 in 5.0 mi WSW 5.8 mph - N/A   Mostly Cloudy
2:00 AM 82.4 °F 89.5 °F 75.2 °F 79% 29.83 in 5.0 mi Variable 5.8 mph - N/A   Mostly Cloudy
2:30 AM 82.4 °F 89.5 °F 75.2 °F 79% 29.83 in 5.0 mi West 9.2 mph - N/A   Mostly Cloudy
3:00 AM 82.4 °F 89.5 °F 75.2 °F 79% 29.83 in 5.0 mi West 8.1 mph - N/A   Mostly Cloudy
3:30 AM 82.4 °F 89.5 °F 75.2 °F 79% 29.83 in 5.0 mi West 8.1 mph - N/A   Mostly Cloudy
4:00 AM 80.6 °F 86.2 °F 75.2 °F 84% 29.83 in 5.0 mi Variable 3.5 mph - N/A   Mostly Cloudy
4:30 AM 80.6 °F 86.2 °F 75.2 °F 84% 29.83 in 5.0 mi Calm Calm - N/A   Mostly Cloudy
5:00 AM 80.6 °F 86.2 °F 75.2 °F 84% 29.83 in 5.0 mi West 3.5 mph - N/A   Mostly Cloudy
5:30 AM 80.6 °F 86.2 °F 75.2 °F 84% 29.83 in 5.0 mi West 5.8 mph - N/A   Mostly Cloudy
6:00 AM 80.6 °F 86.2 °F 75.2 °F 84% 29.83 in 5.0 mi West 3.5 mph - N/A   Mostly Cloudy
6:30 AM 80.6 °F 86.2 °F 75.2 °F 84% 29.83 in 5.0 mi WSW 4.6 mph - N/A   Mostly Cloudy
7:00 AM 82 °F - 77 °F 81% 29.81 in 6 mi West 3.5 mph - -   Scattered Clouds
7:00 AM 82.4 °F 89.5 °F 75.2 °F 79% 29.86 in 5.0 mi Variable 3.5 mph - N/A   Mostly Cloudy
7:30 AM 84.2 °F 92.3 °F 75.2 °F 74% 29.86 in 5.0 mi West 10.4 mph - N/A   Scattered Clouds
8:00 AM 84.2 °F 92.3 °F 75.2 °F 74% 29.86 in 5.6 mi WSW 9.2 mph - N/A   Scattered Clouds
8:30 AM 86.0 °F 95.1 °F 75.2 °F 70% 29.86 in 5.6 mi West 13.8 mph - N/A   Mostly Cloudy
9:00 AM 86.0 °F 95.1 °F 75.2 °F 70% 29.86 in 5.6 mi West 12.7 mph - N/A   Mostly Cloudy
9:30 AM 86.0 °F 95.1 °F 75.2 °F 70% 29.89 in 5.6 mi West 13.8 mph - N/A   Mostly Cloudy
10:00 AM 86.0 °F 95.1 °F 75.2 °F 70% 29.86 in 5.6 mi West 12.7 mph - N/A   Mostly Cloudy
10:30 AM 86.0 °F 95.1 °F 75.2 °F 70% 29.86 in 5.6 mi West 13.8 mph - N/A   Mostly Cloudy
11:00 AM 86.0 °F 95.1 °F 75.2 °F 70% 29.89 in 5.6 mi West 12.7 mph - N/A   Mostly Cloudy
11:30 AM 86.0 °F 95.1 °F 75.2 °F 70% 29.86 in 5.6 mi WSW 12.7 mph - N/A   Mostly Cloudy
12:00 PM 86.0 °F 95.1 °F 75.2 °F 70% 29.86 in 5.6 mi West 13.8 mph - N/A   Mostly Cloudy
12:30 PM 86.0 °F 95.1 °F 75.2 °F 70% 29.86 in 5.6 mi West 13.8 mph - N/A   Mostly Cloudy
1:00 PM 88 °F - 78 °F 64% 29.82 in 6 mi West 3.5 mph - -   Scattered Clouds
1:00 PM 87.8 °F 97.6 °F 75.2 °F 66% 29.86 in 5.6 mi West 12.7 mph - N/A   Mostly Cloudy
1:30 PM 87.8 °F 97.6 °F 75.2 °F 66% 29.83 in 5.6 mi West 13.8 mph - N/A   Mostly Cloudy
2:00 PM 87.8 °F 97.6 °F 75.2 °F 66% 29.83 in 5.6 mi West 15.0 mph - N/A   Mostly Cloudy
2:30 PM 87.8 °F 97.6 °F 75.2 °F 66% 29.83 in 5.6 mi West 13.8 mph - N/A   Mostly Cloudy
3:00 PM 87.8 °F 97.6 °F 75.2 °F 66% 29.83 in 5.6 mi West 13.8 mph - N/A   Mostly Cloudy
3:30 PM 87.8 °F 97.6 °F 75.2 °F 66% 29.80 in 5.6 mi West 12.7 mph - N/A   Mostly Cloudy
4:00 PM 86.0 °F 93.4 °F 73.4 °F 66% 29.80 in 5.6 mi West 12.7 mph - N/A   Mostly Cloudy
4:30 PM 86.0 °F 95.1 °F 75.2 °F 70% 29.80 in 5.6 mi West 12.7 mph - N/A   Mostly Cloudy
5:00 PM 86.0 °F 93.4 °F 73.4 °F 66% 29.80 in 5.6 mi West 15.0 mph - N/A   Mostly Cloudy
5:30 PM 86.0 °F 93.4 °F 73.4 °F 66% 29.80 in 5.6 mi West 12.7 mph - N/A   Mostly Cloudy
6:00 PM 84.2 °F 90.9 °F 73.4 °F 70% 29.80 in 5.6 mi West 11.5 mph - N/A   Mostly Cloudy
6:30 PM 84.2 °F 92.3 °F 75.2 °F 74% 29.80 in 5.6 mi WNW 10.4 mph - N/A   Mostly Cloudy
7:00 PM 85 °F - 76 °F 68% 29.76 in 6 mi West 3.5 mph - -   Scattered Clouds
7:00 PM 84.2 °F 92.3 °F 75.2 °F 74% 29.80 in 5.6 mi West 9.2 mph - N/A   Mostly Cloudy
7:30 PM 82.4 °F 89.5 °F 75.2 °F 79% 29.80 in 5.6 mi WNW 6.9 mph - N/A   Mostly Cloudy
8:00 PM 82.4 °F 89.5 °F 75.2 °F 79% 29.83 in 5.6 mi West 6.9 mph - N/A   Mostly Cloudy
8:30 PM 82.4 °F 88.2 °F 73.4 °F 74% 29.83 in 5.6 mi West 6.9 mph - N/A   Mostly Cloudy
9:00 PM 82.4 °F 88.2 °F 73.4 °F 74% 29.86 in 5.6 mi WSW 5.8 mph - N/A   Mostly Cloudy
9:30 PM 82.4 °F 89.5 °F 75.2 °F 79% 29.86 in 5.6 mi West 8.1 mph - N/A   Mostly Cloudy
10:00 PM 82.4 °F 89.5 °F 75.2 °F 79% 29.86 in 5.6 mi Variable 2.3 mph - N/A   Mostly Cloudy
10:30 PM 82.4 °F 88.2 °F 73.4 °F 74% 29.86 in 5.6 mi Variable 5.8 mph - N/A   Mostly Cloudy
11:00 PM 82.4 °F 88.2 °F 73.4 °F 74% 29.86 in 5.6 mi Variable 3.5 mph - N/A   Mostly Cloudy
11:30 PM 80.6 °F 86.2 °F 75.2 °F 84% 29.86 in 5.6 mi Variable 2.3 mph - N/A   Mostly Cloudy